Simultaneous Nadir Overpasses (SNOs) Predictions

Prediction of SNOs between AQUA and METOP-A Satellite Orbit:

Table of predicted SNOs for the next 14.0 days since TLE Epoch: 1/10/2015
Index Date (AQUA) Time (AQUA) Lat,Lon (AQUA) SZA (AQUA ) Date (METOP-A) Time (METOP-A) Lat,Lon (METOP-A) SZA (METOP-A ) Distance(km) Time Diff (sec)
1 01/10/2015 20:40:17 73.75,-135.65 95.69 01/10/2015 20:39:28 73.75,-135.73 95.70 2.58 49
2 01/10/2015 21:29:44 -73.83, 31.82 84.23 01/10/2015 21:30:08 -73.82, 31.78 84.24 1.46 24
3 01/13/2015 16:14:38 73.75, -69.23 95.25 01/13/2015 16:13:47 73.76, -69.29 95.26 2.19 51
4 01/13/2015 17:04:05 -73.82, 98.26 84.69 01/13/2015 17:04:27 -73.83, 98.22 84.68 1.76 22
5 01/13/2015 17:53:47 74.56, -95.84 96.11 01/13/2015 17:54:52 74.57, -92.60 96.00 95.97 65
6 01/16/2015 11:48:59 73.79, -2.89 94.79 01/16/2015 11:48:06 73.76, -2.87 94.76 3.52 53
7 01/16/2015 12:38:26 -73.86, 164.60 85.15 01/16/2015 12:38:46 -73.83, 164.64 85.18 2.68 20
8 01/16/2015 13:28:07 74.55, -29.39 95.60 01/16/2015 13:29:12 74.52, -26.30 95.45 91.47 65
9 01/19/2015 07:23:18 73.76, 63.59 94.21 01/19/2015 07:22:25 73.75, 63.53 94.21 2.41 53
10 01/19/2015 08:12:44 -73.83,-128.91 85.73 01/19/2015 08:13:04 -73.83,-128.95 85.74 1.25 20
11 01/19/2015 09:02:25 74.53, 37.09 95.02 01/19/2015 09:03:30 74.51, 40.10 94.89 89.21 65
12 01/22/2015 02:57:36 73.78, 129.98 93.62 01/22/2015 02:56:42 73.78, 130.04 93.63 1.91 54
13 01/22/2015 03:47:03 -73.84, -62.52 86.32 01/22/2015 03:47:22 -73.86, -62.45 86.31 2.98 19




NCC Satellite Simultaneous Nadir Overpasses (SNOs) Prediction Service
